Regional Weather Roundup
Issued by NWS

Home | Current Version | Previous Version | Graphics & Text | Print | Product List | Glossary On
Versions: 1 2 3 4 5 6 7 8 9 10 11 12 13 14 15 16 17 18 19 20 21 22 23 24 25 26 27 28 29 30 31 32 33 34 35 36 37 38 39 40 41 42 43 44 45 46 47 48 49 50
000
ASUS43 KIND 230909
RWRIN

WEATHER ROUNDUP FOR INDIANA
NATIONAL WEATHER SERVICE INDIANAPOLIS IN
500 AM EDT SUN APR 23 2017

NOTE: "FAIR" INDICATES FEW OR NO CLOUDS BELOW 12,000 FEET WITH NO
SIGNIFICANT WEATHER AND/OR OBSTRUCTIONS TO VISIBILITY.

* - STATION DOES NOT REPORT WEATHER SUCH AS PRECIPITATION OR FOG.

+ - STATION NOT QUALITY CONTROLLED BY THE NATIONAL WEATHER SERVICE.
    USE DATA WITH CAUTION...ESPECIALLY DEWPOINT AND RELATIVE
    HUMIDITY OBSERVATIONS.

INZ001>003-010>013-019-020-231000-
NORTHWEST INDIANA

CITY           SKY/WX    TMP DP  RH WIND       PRES   REMARKS
GARY /AIRPORT/ CLEAR     37  36  98 CALM      30.13S FOG
KNOX *+        CLEAR     32  14  47 CALM      30.12S
LA PORTE +     CLEAR     35  28  77 CALM      30.13S
MICHIGAN CITY+ CLEAR     32  32 100 CALM      30.13R
MONTICELLO +   CLEAR     39  31  72 N5        30.11R
RENSSELAER +   CLEAR     37  28  70 NE5       30.12R
VALPARAISO     CLEAR     41  24  51 CALM      30.12S

$$

LMZ046-743>745-231000-
SOUTHERN LAKE MICHIGAN

STATION/POSITION TIME  TEMP    WIND        PRES    WAVE
                       AIR SEA DIR/SP/G            HT
                 (UTC) (F)     (DEG/KT/KT) (MB)    (FT)
BURNS HARBOR     0840   46      60/  2/  3 1020.3S
MICHIGAN CITY    0840   43      CALM  /  1   N/A

$$

INZ004-005-014>016-021>024-231000-
NORTH CENTRAL INDIANA

CITY           SKY/WX    TMP DP  RH WIND       PRES   REMARKS
GOSHEN         CLEAR     37  31  78 CALM      30.11S
LOGANSPORT +   CLEAR     36  32  87 N5        30.11S
PERU/GRISSOM   CLEAR     40  33  76 NE6       30.08S
ROCHESTER +    CLEAR     41  32  70 N7        30.12R
SOUTH BEND     CLEAR     33  28  81 CALM      30.12F
WARSAW +       CLEAR     36  34  93 CALM      30.12R

$$

INZ006>009-017-018-025>027-231000-
NORTHEAST INDIANA

CITY           SKY/WX    TMP DP  RH WIND       PRES   REMARKS
ANGOLA *+      CLEAR     36  28  75 CALM      30.11R
AUBURN +       CLEAR     36  32  87 CALM      30.11R
FORT WAYNE     CLEAR     39  30  70 E3        30.10S
HUNTINGTON +   CLEAR     39  32  75 E3        30.09S
KENDALLVILLE + CLEAR     35  35  96 N3        30.12R

$$

INZ028-029-035-036-043>045-051>053-231000-
WEST CENTRAL INDIANA

CITY           SKY/WX    TMP DP  RH WIND       PRES   REMARKS
CRAWFORDSVL +  CLEAR     35  32  88 NE5       30.08R WCI  31
GREENCASTLE +  CLEAR     37  32  81 NE7       30.06F
LAFAYETTE      CLEAR     41  32  70 N3        30.09S
TERRE HAUTE    CLEAR     41  33  73 N7        30.06S

$$

INZ030>032-037>040-046>048-054>057-064-065-231000-
CENTRAL INDIANA

CITY           SKY/WX    TMP DP  RH WIND       PRES   REMARKS
CP ATTERBURY + CLEAR     41  34  75 NE9       30.06S
FISHERS *+     CLEAR     36  34  93 CALM      30.08S
FRANKFORT +    CLEAR     42  34  75 E5        30.10S
GREENWOOD *+   CLEAR     42  32  68 NE6       30.07S
INDIANAPOLIS   CLEAR     45  32  60 NE10      30.06F
-EAGLE CREEK   CLEAR     43  31  62 NE6       30.07S
KOKOMO +       CLEAR     38  31  76 NE5       30.10S
MARION +       CLEAR     37  30  75 NE6       30.09F
MT COMFORT *+  CLEAR     36  32  87 NE6       30.08R
SHELBYVILLE    CLEAR     43  34  70 NE9       30.05F
ZIONSVILLE +   CLEAR     38  31  74 NE7       30.08S

$$

INZ033-034-041-042-049-050-058-059-231000-
EAST CENTRAL INDIANA

CITY           SKY/WX    TMP DP  RH WIND       PRES   REMARKS
MUNCIE         CLEAR     37  30  75 NE5       30.08S
RICHMOND +     CLEAR     39  34  81 NE14      30.07S

$$

INZ060-061-067>069-081>083-085>088-231000-
SOUTHWEST INDIANA

CITY           SKY/WX    TMP DP  RH WIND       PRES   REMARKS
EVANSVILLE     MOCLDY    48  37  65 NE10      29.97S
HUNTINGBURG *+ CLOUDY    47  38  71 NE14      29.97F
WASHINGTON +   CLOUDY    44  33  66 MISG      30.00F

$$

INZ062-063-066-070>080-084-089>092-231000-
SOUTH CENTRAL AND SOUTHEAST INDIANA

CITY           SKY/WX    TMP DP  RH WIND       PRES   REMARKS
BEDFORD +      CLOUDY    43  34  70 NE8       30.01S
BLOOMINGTON    CLEAR     43  33  68 NE9       30.02F
MADISON *+     CLOUDY    45  34  65 NE13G18   30.02S
NORTH VERNON + CLEAR     43  36  75 NE9       30.04S
SEYMOUR +      CLOUDY    43  36  75 N10       30.03S

$$





USA.gov is the U.S. government's official web portal to all federal, state and local government web resources and services.